Date String (YYYY-MM-DD hh:mm:ss) UTC,Instrument flags,Ambient pressure (hPa),Sample flow (lpm),Bypass flow (lpm),Sample temperature (°C),Ambient temperature (°C),ASC tube jacket temperature (°C),LED temperature (°C),Box temperature (°C),Sample RH (%),Span deviation,Mass concentration (μg/m³),Mass concentration (μg/m³),Mass concentration (μg/m³)
DateTimeUTC,F1_M11,P_M11,Q1_M11,Q2_M11,T1_M11,T2_M11,T3_M11,T4_M11,T5_M11,U1_M11,ZSPAN_M11,X2_M11,X0_M11,X1_M11
2023-05-01 10:00:00,,0828.0,4.99,0.00,26.7,25.1,00.0,35.2,28.2,15.2,0000.0,0005.45,0016.24,0003.87
2023-05-01 10:01:00,,0827.9,5.00,0.00,26.7,25.1,00.0,35.2,28.2,15.2,0000.0,0005.43,0015.72,0003.86
2023-05-01 10:02:00,,0827.9,5.00,0.00,26.7,25.1,00.0,35.1,28.2,15.1,0000.0,0005.40,0014.87,0003.84
2023-05-01 10:03:00,,0828.0,5.01,0.00,26.7,25.1,00.0,35.1,28.2,15.0,0000.0,0005.37,0013.82,0003.83
2023-05-01 10:04:00,,0828.0,5.00,0.00,26.7,25.1,00.0,35.1,28.2,15.1,0000.0,0005.33,0013.58,0003.83
2023-05-01 10:05:00,,0828.1,5.00,0.00,26.7,25.1,00.0,35.1,28.2,15.0,0000.0,0005.29,0014.08,0003.81
2023-05-01 10:06:00,,0828.1,5.00,0.00,26.7,25.1,00.0,35.1,28.2,15.0,0000.0,0005.25,0013.57,0003.81
2023-05-01 10:07:00,,0828.1,5.02,0.00,26.7,25.1,00.0,35.1,28.2,14.9,0000.0,0005.25,0013.70,0003.79
2023-05-01 10:08:00,,0828.1,5.00,0.00,26.7,25.1,00.0,35.1,28.2,14.7,0000.0,0005.28,0013.58,0003.77
2023-05-01 10:09:00,,0828.1,4.99,0.00,26.7,25.1,00.0,35.1,28.2,14.6,0000.0,0005.30,0013.66,0003.75
2023-05-01 10:10:00,,0828.0,4.99,0.00,26.7,25.1,00.0,35.1,28.2,14.6,0000.0,0005.28,0013.66,0003.74
2023-05-01 10:11:00,,0828.1,5.01,0.00,26.6,25.1,00.0,35.1,28.2,14.6,0000.0,0005.19,0013.23,0003.72
2023-05-01 10:12:00,,0828.2,5.01,0.00,26.6,25.1,00.0,35.1,28.2,14.6,0000.0,0005.08,0013.26,0003.70
2023-05-01 10:13:00,,0828.2,5.01,0.00,26.7,25.1,00.0,35.1,28.2,14.5,0000.0,0005.07,0013.45,0003.69
2023-05-01 10:14:00,,0828.2,5.00,0.00,26.6,25.1,00.0,35.1,28.2,14.4,0000.0,0005.03,0013.40,0003.66
2023-05-01 10:15:00,,0828.2,4.99,0.00,26.6,25.1,00.0,35.1,28.2,14.2,0000.0,0005.01,0012.97,0003.62
2023-05-01 10:16:00,,0828.2,5.01,0.00,26.6,25.0,00.0,35.1,28.2,14.2,0000.0,0005.02,0013.18,0003.61
2023-05-01 10:17:00,,0828.2,5.00,0.00,26.6,25.0,00.0,35.0,28.2,14.2,0000.0,0005.03,0013.67,0003.59
2023-05-01 10:18:00,,0828.2,4.99,0.00,26.6,25.0,00.0,35.0,28.2,14.1,0000.0,0004.96,0013.05,0003.56
2023-05-01 10:19:00,,0828.1,5.00,0.00,26.6,25.0,00.0,35.0,28.2,14.1,0000.0,0004.90,0013.31,0003.54
2023-05-01 10:20:00,,0828.1,5.00,0.00,26.6,25.0,00.0,35.0,28.2,14.0,0000.0,0004.82,0013.91,0003.51
2023-05-01 10:21:00,,0828.1,5.01,0.00,26.6,25.0,00.0,35.0,28.2,14.0,0000.0,0004.83,0013.94,0003.50
2023-05-01 10:22:00,,0828.1,5.01,0.00,26.6,25.0,00.0,35.0,28.2,14.0,0000.0,0004.83,0014.16,0003.48
2023-05-01 10:23:00,,0828.2,5.00,0.00,26.6,25.0,00.0,35.0,28.2,14.0,0000.0,0004.84,0014.45,0003.48
2023-05-01 10:24:00,,0828.2,4.99,0.00,26.6,25.0,00.0,35.0,28.2,14.1,0000.0,0004.87,0014.36,0003.47
2023-05-01 10:25:00,,0828.2,4.99,0.00,26.6,25.0,00.0,35.0,28.2,14.1,0000.0,0004.85,0014.34,0003.46
2023-05-01 10:26:00,,0828.2,5.00,0.00,26.6,25.1,00.0,35.0,28.1,14.1,0000.0,0004.89,0014.61,0003.46
2023-05-01 10:27:00,,0828.2,5.01,0.00,26.6,25.1,00.0,35.0,28.2,14.0,0000.0,0004.84,0013.97,0003.46
2023-05-01 10:28:00,,0828.2,5.00,0.00,26.6,25.1,00.0,35.0,28.2,13.9,0000.0,0004.77,0013.19,0003.43
2023-05-01 10:29:00,,0828.2,5.00,0.00,26.7,25.1,00.0,35.0,28.2,13.9,0000.0,0004.84,0013.63,0003.43
2023-05-01 10:30:00,,0828.2,4.99,0.00,26.6,25.1,00.0,35.0,28.2,13.9,0000.0,0004.89,0014.19,0003.43
2023-05-01 10:31:00,,0828.2,4.99,0.00,26.6,25.1,00.0,35.0,28.2,13.9,0000.0,0004.95,0013.97,0003.42
2023-05-01 10:32:00,,0828.2,5.01,0.00,26.6,25.1,00.0,35.0,28.2,14.1,0000.0,0004.97,0014.17,0003.42
2023-05-01 10:33:00,,0828.2,5.01,0.00,26.6,25.1,00.0,35.0,28.2,14.1,0000.0,0005.00,0014.44,0003.43
2023-05-01 10:34:00,,0828.2,5.01,0.00,26.6,25.1,00.0,35.0,28.2,14.0,0000.0,0005.02,0014.22,0003.42
2023-05-01 10:35:00,,0828.2,4.99,0.00,26.6,25.1,00.0,35.0,28.1,14.0,0000.0,0004.99,0014.11,0003.41
2023-05-01 10:36:00,,0828.1,4.98,0.00,26.7,25.1,00.0,35.0,28.1,14.0,0000.0,0004.94,0013.85,0003.40
2023-05-01 10:37:00,,0828.2,5.01,0.00,26.7,25.2,00.0,35.0,28.2,13.9,0000.0,0004.97,0014.49,0003.40
2023-05-01 10:38:00,,0828.2,5.01,0.00,26.7,25.2,00.0,35.0,28.2,13.9,0000.0,0005.00,0015.90,0003.38
2023-05-01 10:39:00,,0828.2,5.01,0.00,26.7,25.2,00.0,35.0,28.2,13.8,0000.0,0004.97,0016.41,0003.38
2023-05-01 10:40:00,,0828.2,5.00,0.00,26.7,25.2,00.0,35.0,28.2,13.8,0000.0,0004.89,0015.77,0003.38
2023-05-01 10:41:00,,0828.2,4.99,0.00,26.7,25.2,00.0,35.0,28.2,13.8,0000.0,0004.93,0015.98,0003.38
2023-05-01 10:42:00,,0828.2,5.00,0.00,26.7,25.2,00.0,35.0,28.2,13.8,0000.0,0004.92,0015.52,0003.39
2023-05-01 10:43:00,,0828.1,5.00,0.00,26.7,25.2,00.0,35.0,28.2,13.8,0000.0,0004.92,0015.12,0003.38
2023-05-01 10:44:00,,0828.2,5.00,0.00,26.7,25.1,00.0,35.0,28.2,13.8,0000.0,0004.89,0015.32,0003.36
2023-05-01 10:45:00,,0828.1,5.01,0.00,26.7,25.1,00.0,35.0,28.2,13.8,0000.0,0004.90,0015.07,0003.35
2023-05-01 10:46:00,,0828.1,5.00,0.00,26.7,25.1,00.0,35.0,28.2,13.8,0000.0,0004.87,0015.10,0003.32
2023-05-01 10:47:00,,0828.2,5.00,0.00,26.7,25.1,00.0,35.0,28.2,13.8,0000.0,0004.90,0015.56,0003.31
2023-05-01 10:48:00,,0828.2,4.99,0.00,26.7,25.1,00.0,35.0,28.2,13.8,0000.0,0004.91,0015.17,0003.31
2023-05-01 10:49:00,,0828.2,5.00,0.00,26.7,25.1,00.0,35.0,28.3,13.8,0000.0,0004.88,0013.92,0003.30
2023-05-01 10:50:00,,0828.2,5.01,0.00,26.7,25.1,00.0,35.0,28.2,13.9,0000.0,0004.87,0013.71,0003.31
2023-05-01 10:51:00,,0828.2,5.00,0.00,26.6,25.1,00.0,35.0,28.2,13.9,0000.0,0004.91,0013.81,0003.31
2023-05-01 10:52:00,,0828.2,5.00,0.00,26.6,25.1,00.0,35.0,28.2,13.9,0000.0,0004.90,0012.85,0003.30
2023-05-01 10:53:00,,0828.1,5.00,0.00,26.6,25.0,00.0,35.0,28.2,14.0,0000.0,0004.88,0012.51,0003.30
2023-05-01 10:54:00,,0828.1,5.00,0.00,26.6,25.0,00.0,35.0,28.1,14.0,0000.0,0004.87,0012.54,0003.30
2023-05-01 10:55:00,,0828.1,5.00,0.00,26.6,25.1,00.0,35.0,28.1,14.0,0000.0,0004.83,0012.00,0003.30
2023-05-01 10:56:00,,0828.1,5.00,0.00,26.6,25.1,00.0,35.0,28.1,14.0,0000.0,0004.87,0012.15,0003.31
2023-05-01 10:57:00,,0828.1,5.00,0.00,26.6,25.1,00.0,35.0,28.2,14.0,0000.0,0004.92,0012.98,0003.32
2023-05-01 10:58:00,,0828.1,5.00,0.00,26.6,25.1,00.0,35.0,28.2,14.0,0000.0,0004.94,0012.93,0003.33
2023-05-01 10:59:00,,0828.1,5.00,0.00,26.6,25.0,00.0,35.0,28.2,14.0,0000.0,0004.95,0013.35,0003.34
